Content
SEND FEEDBACK

Daily
Averages
Monthly
Summary
Thailand

RAYONG, THAILAND


Home > Asia > Thailand
Elevation: 16 feet     Latitude: 12 38N     Longitude: 101 21E

WEATHER
 
SELECT A DAY
Number of Records: 198,831;   Date Range: 7/1/96 - 7/29/14
 
SHARE

PRINT THIS DATA

[ ← Previous Day ]
WEATHER ALMANAC - AUGUST 25, 2013
[ Next Day → ]
[ °C ]   °F
Weather ElementAverageHighLow
Temperature84.6 °F91.4 °F (2:30 pm)80.6 °F (12:30 am)
Dewpoint74.9 °F77 °F (9:30 am)73.4 °F (12:30 am)
Humidity73.1 %84 % (1:00 am)59 % (2:00 pm)
Barometer29.72 in29.77 in (8:30 am)29.68 in (2:30 pm)
Wind Speed8.8 mph13.8 mph (10:30 am)
Weather ElementAverage
Visibility5.8 mi
Wind DirectionWSW (259.3 °)

Weather ElementTotal
Precipitation---
Cooling Degree Days21 (Base 65)
Growing Degree Days36 (Base 50)
Averaged from 46 records on August 25, 2013
WEATHER CONDITIONS BREAKOUT
WIND DIRECTION BREAKOUT
WEATHER BY HOUR - AUGUST 25, 2013
[ °C ]   °F
Local TimeTemperatureDewpointHumidityBarometerVisibilityWind DirectionWind SpeedGust SpeedPrecipitationEventsConditions
12:30 AM80.6 °F73.4 °F79 %29.74 in5.6 miWest (270°)3.5 mphMostly Cloudy
1:00 AM80.6 °F75.2 °F84 %29.74 in5.6 miWest (260°)4.6 mphMostly Cloudy
1:30 AM80.6 °F73.4 °F79 %29.74 in5.6 miWest (260°)4.6 mphMostly Cloudy
2:00 AM80.6 °F73.4 °F79 %29.71 in5.6 miWest (270°)4.6 mphMostly Cloudy
3:00 AM80.6 °F73.4 °F79 %29.71 in5.6 miWest (260°)3.5 mphMostly Cloudy
3:30 AM80.6 °F73.4 °F79 %29.71 in5.6 miWSW (250°)4.6 mphMostly Cloudy
4:00 AM80.6 °F73.4 °F79 %29.71 in5.6 miWSW (240°)6.9 mphMostly Cloudy
4:30 AM80.6 °F73.4 °F79 %29.71 in5.6 miWSW (250°)6.9 mphMostly Cloudy
5:00 AM80.6 °F73.4 °F79 %29.71 in5.6 miWest (260°)6.9 mphMostly Cloudy
5:30 AM80.6 °F73.4 °F79 %29.71 in5.6 miWSW (250°)6.9 mphMostly Cloudy
6:00 AM80.6 °F73.4 °F79 %29.71 in5.0 miWest (260°)6.9 mphMostly Cloudy
6:30 AM80.6 °F75.2 °F84 %29.71 in5.6 miWest (260°)6.9 mphMostly Cloudy
7:00 AM82.4 °F75.2 °F79 %29.71 in5.0 miWSW (250°)6.9 mphMostly Cloudy
7:30 AM82.4 °F75.2 °F79 %29.74 in5.0 miWSW (250°)9.2 mphMostly Cloudy
8:00 AM84.2 °F75.2 °F74 %29.74 in5.0 miWSW (250°)9.2 mphMostly Cloudy
8:30 AM84.2 °F75.2 °F74 %29.77 in5.6 miWSW (240°)11.5 mphMostly Cloudy
9:00 AM86.0 °F75.2 °F70 %29.77 in5.6 miWest (260°)11.5 mphMostly Cloudy
9:30 AM86.0 °F77.0 °F74 %29.77 in6.2 miWSW (250°)9.2 mphMostly Cloudy
10:00 AM87.8 °F75.2 °F66 %29.77 in6.2 miWSW (250°)11.5 mphMostly Cloudy
10:30 AM86.0 °F75.2 °F70 %29.74 in6.2 miWest (260°)13.8 mphMostly Cloudy
11:00 AM87.8 °F75.2 °F66 %29.74 in6.2 miWest (270°)11.5 mphMostly Cloudy
11:30 AM89.6 °F75.2 °F62 %29.74 in6.2 miWest (280°)11.5 mphMostly Cloudy
12:00 PM87.8 °F75.2 °F66 %29.74 in6.2 miWest (260°)13.8 mphMostly Cloudy
12:30 PM87.8 °F75.2 °F66 %29.74 in6.2 miWest (270°)13.8 mphMostly Cloudy
1:00 PM89.6 °F75.2 °F62 %29.71 in6.2 miNW (310°)11.5 mphMostly Cloudy
1:30 PM89.6 °F75.2 °F62 %29.71 in6.2 miWest (280°)11.5 mphMostly Cloudy
2:00 PM89.6 °F73.4 °F59 %29.71 in6.2 miWest (280°)11.5 mphMostly Cloudy
2:30 PM91.4 °F75.2 °F59 %29.68 in6.2 miWest (260°)9.2 mphMostly Cloudy
3:00 PM89.6 °F77.0 °F66 %29.68 in6.2 miWSW (240°)13.8 mphMostly Cloudy
3:30 PM87.8 °F75.2 °F66 %29.68 in6.2 miWest (260°)13.8 mphMostly Cloudy
4:00 PM89.6 °F73.4 °F59 %29.68 in6.2 miWest (280°)11.5 mphMostly Cloudy
4:30 PM87.8 °F75.2 °F66 %29.68 in6.2 miWest (260°)13.8 mphMostly Cloudy
5:00 PM87.8 °F75.2 °F66 %29.68 in6.2 miWSW (250°)11.5 mphMostly Cloudy
5:30 PM87.8 °F73.4 °F62 %29.68 in6.2 miWest (260°)11.5 mphMostly Cloudy
6:00 PM87.8 °F75.2 °F66 %29.68 in6.2 miWSW (240°)13.8 mphMostly Cloudy
6:30 PM84.2 °F75.2 °F74 %29.71 in6.2 miWSW (250°)11.5 mphMostly Cloudy
7:00 PM84.2 °F77.0 °F79 %29.71 in6.2 miSW (230°)9.2 mphMostly Cloudy
7:30 PM84.2 °F77.0 °F79 %29.71 in6.2 miSW (230°)4.6 mphMostly Cloudy
8:00 PM84.2 °F77.0 °F79 %29.71 in6.2 miSW (230°)9.2 mphMostly Cloudy
8:30 PM82.4 °F77.0 °F84 %29.71 in6.2 miWest (260°)6.9 mphMostly Cloudy
9:00 PM82.4 °F75.2 °F79 %29.74 in5.6 miWest (270°)4.6 mphMostly Cloudy
9:30 PM82.4 °F75.2 °F79 %29.74 in5.6 miWest (260°)6.9 mphMostly Cloudy
10:00 PM82.4 °F75.2 °F79 %29.74 in5.6 miWest (260°)6.9 mphMostly Cloudy
10:30 PM82.4 °F75.2 °F79 %29.77 in5.6 miWest (260°)4.6 mphMostly Cloudy
11:00 PM82.4 °F75.2 °F79 %29.77 in5.0 miWNW (300°)3.5 mphMostly Cloudy
11:30 PM82.4 °F73.4 °F74 %29.77 in5.0 miWest (280°)3.5 mphMostly Cloudy
Hourly data recorded from VTBU, located miles away from Rayong, Thailand







STORIES FROM OUR PARTNERS